Weather History for Morris, MN

Change the Weather History Date:

Monday, October 29, 2012

  Actual Average Record
Temperature  
Mean Temperature 43 °F -  
Max Temperature 51 °F 46 °F 68 °F (2004)
Min Temperature 35 °F 30 °F 19 °F (2011)
Degree Days  
Heating Degree Days 22    
Moisture  
Dew Point 29 °F    
Average Humidity 63    
Maximum Humidity 81    
Minimum Humidity 44    
Precipitation  
Precipitation 0.00 in - - ()
Sea Level Pressure  
Sea Level Pressure 30.16 in    
Wind  
Wind Speed 15 mph (SE)    
Max Wind Speed 23 mph    
Max Gust Speed 28 mph    
Visibility 10 miles    
Events      
Averages and records for this station are not official NWS values.
T = Trace of Precipitation, MM = Missing Value Source: NWS Daily Summary

Daily Weather History Graph

Daily Weather History Graph

Search for Another Location

Airport:

Trip Planner

Search our weather history database for the weather conditions in past years. The results will help you decide how hot, cold, wet, or windy it might be!

Date:

Astronomy

Oct. 29, 2012 Rise Set
Actual Time 8:00 AM CDT 6:14 PM CDT
Civil Twilight 7:29 AM CDT 6:45 PM CDT
Nautical Twilight 6:54 AM CDT 7:19 PM CDT
Astronomical Twilight 6:19 AM CDT 7:54 PM CDT
Moon 6:04 PM CDT (10/29) 7:53 AM CDT (10/29)
Length of Visible Light 11h 15m
Length of Day
10h 14m
Full, 100% of the Moon is Illuminated
Oct 29
Full
Oct 29
Full
Nov 6
Last Quarter
Nov 13
New
Nov 20
First Quarter

Hourly Weather History & Observations

Time (CDT) Temp. Windchill Dew Point Humidity Pressure Visibility Wind Dir Wind Speed Gust Speed Precip Events Conditions
12:09 AM 37.4 °F 28.5 °F 30.2 °F 75% 30.18 in 10.0 mi SE 15.0 mph - N/A   Clear
12:29 AM 37.4 °F 28.9 °F 30.2 °F 75% 30.18 in 10.0 mi SSE 13.8 mph 18.4 mph N/A   Clear
12:49 AM 37.4 °F 28.9 °F 30.2 °F 75% 30.17 in 10.0 mi SE 13.8 mph - N/A   Clear
1:09 AM 37.4 °F 29.3 °F 30.2 °F 75% 30.19 in 10.0 mi SE 12.7 mph - N/A   Clear
1:29 AM 35.6 °F 27.1 °F 30.2 °F 81% 30.19 in 10.0 mi SE 12.7 mph - N/A   Mostly Cloudy
1:49 AM 37.4 °F 29.3 °F 30.2 °F 75% 30.18 in 10.0 mi SE 12.7 mph - N/A   Overcast
2:29 AM 37.4 °F 28.5 °F 30.2 °F 75% 30.18 in 10.0 mi SE 15.0 mph - N/A   Scattered Clouds
2:49 AM 37.4 °F 29.8 °F 30.2 °F 75% 30.18 in 10.0 mi SE 11.5 mph - N/A   Scattered Clouds
3:09 AM 37.4 °F 29.3 °F 30.2 °F 75% 30.18 in 10.0 mi SE 12.7 mph - N/A   Overcast
3:29 AM 37.4 °F 29.3 °F 30.2 °F 75% 30.17 in 10.0 mi SE 12.7 mph - N/A   Overcast
3:49 AM 37.4 °F 28.5 °F 28.4 °F 70% 30.17 in 10.0 mi SE 15.0 mph - N/A   Overcast
4:29 AM 37.4 °F 28.2 °F 28.4 °F 70% 30.16 in 10.0 mi SE 16.1 mph - N/A   Mostly Cloudy
4:49 AM 37.4 °F 28.5 °F 28.4 °F 70% 30.15 in 10.0 mi SE 15.0 mph - N/A   Mostly Cloudy
5:09 AM 37.4 °F 28.2 °F 28.4 °F 70% 30.15 in 10.0 mi SE 16.1 mph 19.6 mph N/A   Mostly Cloudy
5:29 AM 37.4 °F 27.5 °F 28.4 °F 70% 30.15 in 10.0 mi SE 18.4 mph 21.9 mph N/A   Overcast
5:49 AM 37.4 °F 27.8 °F 28.4 °F 70% 30.16 in 10.0 mi SE 17.3 mph - N/A   Overcast
6:09 AM 37.4 °F 28.2 °F 28.4 °F 70% 30.16 in 10.0 mi SE 16.1 mph - N/A   Overcast
6:29 AM 37.4 °F 28.2 °F 28.4 °F 70% 30.15 in 10.0 mi SE 16.1 mph - N/A   Overcast
6:49 AM 37.4 °F 28.5 °F 28.4 °F 70% 30.15 in 10.0 mi SE 15.0 mph - N/A   Overcast
7:09 AM 37.4 °F 28.2 °F 26.6 °F 65% 30.15 in 10.0 mi SE 16.1 mph - N/A   Mostly Cloudy
7:29 AM 37.4 °F 28.5 °F 26.6 °F 65% 30.16 in 10.0 mi SE 15.0 mph - N/A   Mostly Cloudy
7:49 AM 37.4 °F 28.9 °F 26.6 °F 65% 30.16 in 10.0 mi SE 13.8 mph - N/A   Scattered Clouds
8:09 AM 37.4 °F 28.5 °F 26.6 °F 65% 30.16 in 10.0 mi SE 15.0 mph - N/A   Mostly Cloudy
8:29 AM 37.4 °F 28.9 °F 26.6 °F 65% 30.17 in 10.0 mi SE 13.8 mph - N/A   Mostly Cloudy
8:49 AM 37.4 °F 29.3 °F 28.4 °F 70% 30.17 in 10.0 mi SE 12.7 mph - N/A   Scattered Clouds
9:09 AM 37.4 °F 27.8 °F 26.6 °F 65% 30.16 in 10.0 mi SE 17.3 mph - N/A   Mostly Cloudy
9:29 AM 39.2 °F 30.8 °F 28.4 °F 65% 30.17 in 10.0 mi SE 15.0 mph - N/A   Mostly Cloudy
9:49 AM 39.2 °F 29.8 °F 28.4 °F 65% 30.17 in 10.0 mi SE 18.4 mph 21.9 mph N/A   Mostly Cloudy
10:09 AM 39.2 °F 30.8 °F 28.4 °F 65% 30.17 in 10.0 mi SE 15.0 mph - N/A   Mostly Cloudy
10:29 AM 39.2 °F 29.6 °F 28.4 °F 65% 30.17 in 10.0 mi SE 19.6 mph - N/A   Mostly Cloudy
10:49 AM 41.0 °F 33.1 °F 28.4 °F 61% 30.18 in 10.0 mi SSE 15.0 mph 24.2 mph N/A   Mostly Cloudy
11:09 AM 42.8 °F 34.5 °F 28.4 °F 57% 30.18 in 10.0 mi SSE 18.4 mph 21.9 mph N/A   Mostly Cloudy
11:29 AM 42.8 °F 34.8 °F 28.4 °F 57% 30.18 in 10.0 mi SSE 17.3 mph - N/A   Scattered Clouds
11:49 AM 44.6 °F 36.6 °F 30.2 °F 57% 30.18 in 10.0 mi SSE 19.6 mph - N/A   Scattered Clouds
12:29 PM 44.6 °F 36.6 °F 30.2 °F 57% 30.17 in 10.0 mi SE 19.6 mph - N/A   Scattered Clouds
12:49 PM 48.2 °F - 30.2 °F 50% 30.17 in 10.0 mi SE 21.9 mph 25.3 mph N/A   Scattered Clouds
1:09 PM 48.2 °F - 30.2 °F 50% 30.16 in 10.0 mi SSE 18.4 mph - N/A   Scattered Clouds
1:49 PM 50.0 °F - 30.2 °F 47% 30.15 in 10.0 mi SSE 17.3 mph - N/A   Mostly Cloudy
2:09 PM 48.2 °F - 30.2 °F 50% 30.15 in 10.0 mi SE 18.4 mph - N/A   Mostly Cloudy
2:29 PM 48.2 °F - 30.2 °F 50% 30.15 in 10.0 mi SSE 17.3 mph - N/A   Scattered Clouds
2:49 PM 48.2 °F - 30.2 °F 50% 30.14 in 10.0 mi SE 19.6 mph 24.2 mph N/A   Scattered Clouds
3:09 PM 50.0 °F - 30.2 °F 47% 30.14 in 10.0 mi ESE 18.4 mph 26.5 mph N/A   Scattered Clouds
3:29 PM 51.8 °F - 30.2 °F 44% 30.13 in 10.0 mi SE 19.6 mph 27.6 mph N/A   Clear
3:49 PM 51.8 °F - 30.2 °F 44% 30.13 in 10.0 mi SE 21.9 mph 26.5 mph N/A   Clear
4:09 PM 50.0 °F - 30.2 °F 47% 30.13 in 10.0 mi SE 20.7 mph - N/A   Clear
4:29 PM 50.0 °F - 30.2 °F 47% 30.13 in 10.0 mi SE 23.0 mph 27.6 mph N/A   Clear
4:49 PM 50.0 °F - 30.2 °F 47% 30.13 in 10.0 mi SE 19.6 mph - N/A   Clear
5:09 PM 48.2 °F - 30.2 °F 50% 30.14 in 10.0 mi ESE 17.3 mph 24.2 mph N/A   Clear
5:29 PM 48.2 °F - 30.2 °F 50% 30.14 in 10.0 mi ESE 17.3 mph - N/A   Clear
5:49 PM 46.4 °F 39.5 °F 30.2 °F 53% 30.14 in 10.0 mi ESE 17.3 mph 23.0 mph N/A   Clear
6:09 PM 44.6 °F 37.4 °F 30.2 °F 57% 30.15 in 10.0 mi ESE 16.1 mph - N/A   Clear
6:29 PM 44.6 °F 37.4 °F 30.2 °F 57% 30.15 in 10.0 mi ESE 16.1 mph 21.9 mph N/A   Clear
6:49 PM 42.8 °F 35.1 °F 30.2 °F 61% 30.15 in 10.0 mi ESE 16.1 mph - N/A   Clear
7:09 PM 42.8 °F 35.4 °F 30.2 °F 61% 30.16 in 10.0 mi ESE 15.0 mph - N/A   Clear
7:29 PM 42.8 °F 35.4 °F 28.4 °F 57% 30.16 in 10.0 mi ESE 15.0 mph - N/A   Clear
7:49 PM 41.0 °F 33.1 °F 28.4 °F 61% 30.16 in 10.0 mi SE 15.0 mph - N/A   Clear
8:09 PM 41.0 °F 33.1 °F 28.4 °F 61% 30.16 in 10.0 mi ESE 15.0 mph 20.7 mph N/A   Clear
8:29 PM 39.2 °F 30.5 °F 30.2 °F 70% 30.16 in 10.0 mi SE 16.1 mph - N/A   Clear
8:49 PM 39.2 °F 30.8 °F 28.4 °F 65% 30.16 in 10.0 mi SE 15.0 mph - N/A   Clear
9:09 PM 39.2 °F 30.8 °F 28.4 °F 65% 30.16 in 10.0 mi SE 15.0 mph - N/A   Clear
9:29 PM 37.4 °F 28.2 °F 28.4 °F 70% 30.16 in 10.0 mi ESE 16.1 mph - N/A   Clear
9:49 PM 37.4 °F 28.9 °F 28.4 °F 70% 30.17 in 10.0 mi SE 13.8 mph - N/A   Clear
10:09 PM 37.4 °F 28.5 °F 28.4 °F 70% 30.17 in 10.0 mi SE 15.0 mph - N/A   Clear
10:29 PM 37.4 °F 28.5 °F 28.4 °F 70% 30.16 in 10.0 mi SE 15.0 mph - N/A   Clear
10:49 PM 37.4 °F 28.9 °F 28.4 °F 70% 30.16 in 10.0 mi SE 13.8 mph - N/A   Clear
11:09 PM 37.4 °F 28.9 °F 28.4 °F 70% 30.16 in 10.0 mi SE 13.8 mph - N/A   Clear
11:29 PM 35.6 °F 26.6 °F 28.4 °F 75% 30.17 in 10.0 mi SE 13.8 mph - N/A   Clear
11:49 PM 35.6 °F 27.5 °F 28.4 °F 75% 30.17 in 10.0 mi ESE 11.5 mph - N/A   Clear